{"data":{"norad_id":60112,"epoch":"2026-09-21T06:33:57.207456Z","epoch_age_seconds":110747,"freshness":"FRESH","line1":"1 60112U 24117X   26264.27357879 -.00000529  00000+0 -45225-5 0  9993","line2":"2 60112  53.1596 206.3553 0001905  82.0135 278.1084 15.34388041126869","mean_motion":15.34388041,"eccentricity":0.0001905,"inclination_deg":53.1596,"raan_deg":206.3553,"arg_perigee_deg":82.0135,"mean_anomaly_deg":278.1084,"bstar":-4.5225e-6,"rev_number":12686,"period_min":93.848489529514,"perigee_km":461.43559826915,"apogee_km":464.04197194328,"semimajor_km":6840.8757851062,"source":"CELESTRAK","updated_at":"2026-09-22T09:00:49.154224Z"}}